Regional Weather Roundup
Issued by NWS Cleveland, OH

Home | Current Version | Previous Version | Graphics & Text | Print | Product List | Glossary On
Versions: 1 2 3 4 5 6 7 8 9 10 11 12 13 14 15 16 17 18 19 20 21 22 23 24 25 26 27 28 29 30 31 32 33 34 35 36 37 38 39 40 41 42 43 44 45 46 47 48 49 50
000
ASUS41 KCLE 260210
RWRCLE
OHIO REGIONAL WEATHER ROUNDUP
NATIONAL WEATHER SERVICE CLEVELAND, OH
1000 PM EDT FRI JUL 25 2014

NOTE: "FAIR" INDICATES FEW OR NO CLOUDS BELOW 12,000 FEET WITH NO
SIGNIFICANT WEATHER AND/OR OBSTRUCTIONS TO VISIBILITY.

OHZ001>008-015>018-024>027-034-035-043-044-260300-
   NORTHWEST OHIO

CITY           SKY/WX    TMP DP  RH WIND       PRES   REMARKS
DEFIANCE       CLOUDY    69  58  67 S5        29.98S
FINDLAY        CLOUDY    69  58  67 S3        30.00R
TOLEDO EXPRESS CLOUDY    66  59  78 S5        29.98S
TOLEDO EXEC    CLOUDY    70  58  65 S3        29.99F
LIMA           CLOUDY    69  57  65 SE3       30.01R
$$

OHZ009>014-019>023-028>033-038-089-260300-
   NORTHEAST OHIO

CITY           SKY/WX    TMP DP  RH WIND       PRES   REMARKS
CLE-HOPKINS    LGT RAIN  69  53  56 E5        30.03R
CLE-LAKEFRONT  LGT RAIN  71  53  52 E3        29.99S
CUY CO. ARPT   CLOUDY    66  59  77 SE5       30.02S
LORAIN-ELYRIA  LGT RAIN  70  57  63 CALM      30.02R
ASHTABULA      MOCLDY    61  56  83 CALM      30.03R
AKRON-CANTON   CLOUDY    70  54  56 CALM      30.02S
WOOSTER        CLOUDY    68  60  75 CALM      30.02S
MANSFIELD      CLOUDY    68  58  70 CALM      30.03R
YOUNGSTOWN     CLOUDY    67  53  61 S7        30.02R
$$

OHZ042-051>053-060>062-070>072-077>081-260300-
  SOUTHWEST OHIO

CITY           SKY/WX    TMP DP  RH WIND       PRES   REMARKS
CINC-COVINGTON MOCLDY    70  56  61 CALM      29.99R
CINC-LUNKEN    PTCLDY    67  62  84 CALM      29.99R
HAMILTON       PTCLDY    67  61  81 CALM      29.99R
DAYTON         MOCLDY    68  59  73 CALM      30.02R
WRIGHT-PAT AFB MOCLDY    70  60  69 N3        30.01R
DAYTON GENERAL MOCLDY    69  59  70 CALM      29.99R
WILMINGTON     CLOUDY    68  59  73 S3        29.99R
$$

OHZ036-037-039>041-045>050-054>059-063>069-073>076-082>088-260300-
  CENTRAL AND SOUTHEAST OHIO

CITY           SKY/WX    TMP DP  RH WIND       PRES   REMARKS
COLUMBUS       CLOUDY    75  56  51 SE3       29.99S
OSU AIRPORT    CLOUDY    69  59  70 N5        30.00R
BOLTON FIELD   CLOUDY    69  62  78 CALM      30.01R
RICKENBACK AFB CLOUDY    71  58  62 E5        29.98S
NEWARK         CLOUDY    68  61  78 CALM      30.00F
MARION         CLOUDY    70  57  63 CALM      30.02R
LANCASTER      CLOUDY    70  60  70 E3        30.00F
ZANESVILLE     CLOUDY    69  60  73 SE3       30.01S
NEW PHILLY     CLOUDY    66  60  81 CALM      30.02S
$$



USA.gov is the U.S. government's official web portal to all federal, state and local government web resources and services.